When you browse on this site, cookies collect data to enhance your experience and personalize the content and advertising you see.
Visit our Privacy Policy to learn more. By continuing to use the site, you agree to this use of cookies and data.
  • In Hungary
  • List of Countries
  • For 7 days
  • Water Temperature
  • Weather Map
  • News
  • Weather Widgets
  • user-avatar
    Login

    Hourly Weather Zira

    Today, 9 December, Monday

    Time Temperature Precipitation Wind Pressure Humidity
    00:00 +9°C° 1.3 mm 3 mps 762 mmHg 89%
    01:00 +9°C° 0.5 mm 3 mps 762 mmHg 88%
    02:00 +8°C° 0.5 mm 4 mps 761 mmHg 86%
    03:00 +8°C° 0.5 mm 4 mps 761 mmHg 85%
    04:00 +8°C° 0.3 mm 5 mps 762 mmHg 86%
    05:00 +8°C° 0.3 mm 5 mps 762 mmHg 86%
    06:00 +8°C° 0.3 mm 6 mps 762 mmHg 87%
    07:00 +8°C° 0.4 mm 6 mps 763 mmHg 86%
    08:00 +8°C° 0.4 mm 7 mps 763 mmHg 86%
    09:00 +7°C° 0.4 mm 8 mps 764 mmHg 85%
    10:00 +7°C° 0.2 mm 9 mps 764 mmHg 79%
    11:00 +7°C° 0.2 mm 10 mps 764 mmHg 74%
    12:00 +7°C° 0.2 mm 12 mps 764 mmHg 68%
    13:00 +7°C° 0 mm 11 mps 764 mmHg 68%
    14:00 +7°C° 0 mm 11 mps 764 mmHg 68%
    15:00 +8°C° 0 mm 10 mps 765 mmHg 69%
    16:00 +8°C° 0 mm 10 mps 765 mmHg 69%
    17:00 +7°C° 0 mm 10 mps 765 mmHg 70%
    18:00 +7°C° 0 mm 9 mps 765 mmHg 71%
    19:00 +7°C° 0 mm 9 mps 766 mmHg 72%
    20:00 +7°C° 0 mm 9 mps 766 mmHg 72%
    21:00 +7°C° 0 mm 8 mps 766 mmHg 73%
    22:00 +7°C° 0 mm 8 mps 766 mmHg 74%
    23:00 +8°C° 0 mm 7 mps 766 mmHg 75%

    Tomorrow, 10 December, Tuesday

    Time Temperature Precipitation Wind Pressure Humidity
    00:00 +8°C° 0 mm 7 mps 766 mmHg 75%
    01:00 +8°C° 0 mm 7 mps 766 mmHg 75%
    02:00 +8°C° 0 mm 6 mps 766 mmHg 75%
    03:00 +8°C° 0 mm 6 mps 766 mmHg 74%
    04:00 +8°C° 0 mm 5 mps 766 mmHg 73%
    05:00 +8°C° 0 mm 5 mps 767 mmHg 73%
    06:00 +8°C° 0 mm 5 mps 767 mmHg 72%
    07:00 +8°C° 0 mm 5 mps 767 mmHg 72%
    08:00 +8°C° 0 mm 5 mps 767 mmHg 72%
    09:00 +8°C° 0 mm 4 mps 768 mmHg 72%
    10:00 +10°C° 0 mm 4 mps 768 mmHg 70%
    11:00 +10°C° 0 mm 3 mps 767 mmHg 69%
    12:00 +10°C° 0 mm 3 mps 767 mmHg 67%
    13:00 +10°C° 0 mm 2 mps 767 mmHg 68%
    14:00 +10°C° 0 mm 2 mps 767 mmHg 68%
    15:00 +11°C° 0 mm 1 mps 766 mmHg 68%
    16:00 +11°C° 0 mm 1 mps 767 mmHg 69%
    17:00 +11°C° 0 mm 1 mps 767 mmHg 71%
    18:00 +9°C° 0 mm 0 mps 767 mmHg 72%
    19:00 +10°C° 0 mm 1 mps 767 mmHg 73%
    20:00 +10°C° 0 mm 1 mps 767 mmHg 75%
    21:00 +10°C° 0 mm 1 mps 767 mmHg 76%
    22:00 +10°C° 0.1 mm 1 mps 766 mmHg 77%
    23:00 +9°C° 0.1 mm 2 mps 766 mmHg 78%

    Day after tomorrow, 11 December, Wednesday

    Time Temperature Precipitation Wind Pressure Humidity
    00:00 +9°C° 0.1 mm 2 mps 766 mmHg 79%
    01:00 +9°C° 0.5 mm 2 mps 766 mmHg 82%
    02:00 +9°C° 0.5 mm 2 mps 766 mmHg 85%
    03:00 +9°C° 0.5 mm 2 mps 766 mmHg 87%
    04:00 +9°C° 1 mm 3 mps 766 mmHg 87%
    05:00 +9°C° 1 mm 3 mps 766 mmHg 87%
    06:00 +8°C° 1 mm 4 mps 766 mmHg 86%
    07:00 +8°C° 0.5 mm 4 mps 766 mmHg 83%
    08:00 +8°C° 0.5 mm 5 mps 766 mmHg 80%
    09:00 +8°C° 0.5 mm 6 mps 766 mmHg 77%
    10:00 +9°C° 0 mm 5 mps 766 mmHg 75%
    11:00 +9°C° 0 mm 5 mps 766 mmHg 72%
    12:00 +9°C° 0 mm 5 mps 766 mmHg 70%
    13:00 +9°C° 0 mm 5 mps 766 mmHg 70%
    14:00 +9°C° 0 mm 5 mps 765 mmHg 70%
    15:00 +8°C° 0 mm 5 mps 765 mmHg 71%
    16:00 +8°C° 0 mm 5 mps 766 mmHg 70%
    17:00 +8°C° 0 mm 5 mps 766 mmHg 70%
    18:00 +8°C° 0 mm 5 mps 766 mmHg 69%
    19:00 +8°C° 0 mm 5 mps 766 mmHg 69%
    20:00 +8°C° 0 mm 5 mps 766 mmHg 69%
    21:00 +8°C° 0 mm 4 mps 766 mmHg 69%
    22:00 +8°C° 0 mm 4 mps 766 mmHg 69%
    23:00 +8°C° 0 mm 4 mps 766 mmHg 69%

    12 December, Thursday

    Time Temperature Precipitation Wind Pressure Humidity
    00:00 +8°C° 0 mm 4 mps 766 mmHg 69%
    01:00 +8°C° 0 mm 3 mps 766 mmHg 69%
    02:00 +8°C° 0 mm 2 mps 766 mmHg 69%
    03:00 +8°C° 0 mm 2 mps 766 mmHg 69%
    04:00 +9°C° 0 mm 1 mps 766 mmHg 70%
    05:00 +8°C° 0 mm 1 mps 766 mmHg 72%
    06:00 +7°C° 0 mm 0 mps 766 mmHg 73%
    07:00 +8°C° 0 mm 0 mps 766 mmHg 71%
    08:00 +8°C° 0 mm 0 mps 766 mmHg 69%
    09:00 +8°C° 0 mm 0 mps 766 mmHg 67%
    10:00 +10°C° 0 mm 1 mps 766 mmHg 66%
    11:00 +9°C° 0 mm 2 mps 765 mmHg 65%
    12:00 +10°C° 0 mm 2 mps 765 mmHg 64%
    13:00 +10°C° 0 mm 2 mps 764 mmHg 65%
    14:00 +10°C° 0 mm 2 mps 764 mmHg 66%
    15:00 +10°C° 0 mm 2 mps 764 mmHg 68%
    16:00 +10°C° 0 mm 3 mps 764 mmHg 70%
    17:00 +10°C° 0 mm 3 mps 764 mmHg 72%
    18:00 +9°C° 0 mm 3 mps 764 mmHg 74%
    19:00 +9°C° 0 mm 2 mps 764 mmHg 74%
    20:00 +9°C° 0 mm 2 mps 764 mmHg 73%
    21:00 +10°C° 0 mm 2 mps 763 mmHg 73%
    22:00 +10°C° 0 mm 2 mps 763 mmHg 74%
    23:00 +9°C° 0 mm 2 mps 763 mmHg 75%

    13 December, Friday

    Time Temperature Precipitation Wind Pressure Humidity
    00:00 +9°C° 0 mm 2 mps 763 mmHg 76%
    01:00 +9°C° 0.1 mm 2 mps 762 mmHg 78%
    02:00 +9°C° 0.1 mm 2 mps 762 mmHg 79%
    03:00 +9°C° 0.1 mm 3 mps 762 mmHg 81%
    04:00 +9°C° 0.1 mm 3 mps 762 mmHg 82%
    05:00 +7°C° 0.1 mm 4 mps 762 mmHg 82%
    06:00 +7°C° 0.1 mm 4 mps 761 mmHg 83%
    07:00 +7°C° 0.2 mm 5 mps 762 mmHg 82%
    08:00 +7°C° 0.2 mm 5 mps 762 mmHg 80%
    09:00 +7°C° 0.2 mm 6 mps 762 mmHg 79%
    10:00 +7°C° 0.1 mm 6 mps 762 mmHg 77%
    11:00 +7°C° 0.1 mm 5 mps 761 mmHg 75%
    12:00 +7°C° 0.1 mm 5 mps 761 mmHg 73%
    13:00 +7°C° 0 mm 6 mps 761 mmHg 73%
    14:00 +7°C° 0 mm 6 mps 761 mmHg 73%
    15:00 +7°C° 0 mm 6 mps 761 mmHg 72%
    16:00 +7°C° 0 mm 6 mps 761 mmHg 70%
    17:00 +7°C° 0 mm 6 mps 762 mmHg 68%
    18:00 +7°C° 0 mm 6 mps 762 mmHg 66%
    19:00 +7°C° 0 mm 6 mps 762 mmHg 69%
    20:00 +5°C° 0 mm 6 mps 762 mmHg 73%
    21:00 +5°C° 0 mm 6 mps 762 mmHg 77%
    22:00 +5°C° 0 mm 6 mps 763 mmHg 76%
    23:00 +5°C° 0 mm 6 mps 763 mmHg 75%

    14 December, Saturday

    Time Temperature Precipitation Wind Pressure Humidity
    00:00 +5°C° 0 mm 6 mps 763 mmHg 74%
    01:00 +5°C° 0 mm 6 mps 763 mmHg 73%
    02:00 +6°C° 0 mm 5 mps 763 mmHg 72%
    03:00 +6°C° 0 mm 5 mps 763 mmHg 71%
    04:00 +6°C° 0 mm 5 mps 763 mmHg 70%
    05:00 +6°C° 0 mm 5 mps 763 mmHg 70%
    06:00 +6°C° 0 mm 5 mps 763 mmHg 69%
    07:00 +6°C° 0 mm 4 mps 764 mmHg 69%
    08:00 +6°C° 0 mm 4 mps 764 mmHg 69%
    09:00 +7°C° 0 mm 3 mps 764 mmHg 69%
    10:00 +7°C° 0 mm 3 mps 764 mmHg 68%
    11:00 +7°C° 0 mm 3 mps 764 mmHg 67%
    12:00 +7°C° 0 mm 3 mps 763 mmHg 66%
    13:00 +8°C° 0 mm 3 mps 763 mmHg 66%
    14:00 +8°C° 0 mm 3 mps 763 mmHg 66%
    15:00 +8°C° 0 mm 3 mps 763 mmHg 67%
    16:00 +8°C° 0 mm 3 mps 763 mmHg 68%
    17:00 +8°C° 0 mm 3 mps 763 mmHg 70%
    18:00 +8°C° 0 mm 3 mps 763 mmHg 72%
    19:00 +8°C° 0 mm 3 mps 764 mmHg 74%
    20:00 +7°C° 0 mm 4 mps 764 mmHg 76%
    21:00 +7°C° 0 mm 4 mps 764 mmHg 78%
    22:00 +7°C° 0.2 mm 5 mps 764 mmHg 78%
    23:00 +6°C° 0.2 mm 5 mps 764 mmHg 79%
    Show more